Time,TemperatureF,DewpointF,PressureIn,WindDirection,WindDirectionDegrees,WindSpeedMPH,WindSpeedGustMPH,Humidity,HourlyPrecipIn,Conditions,Clouds,dailyrainin,SoftwareType,DateUTC
2013-08-03 00:02:00,61.9,55.0,30.08,WNW,300,0.0,5.0,78,0.00,,,0.00,weatherlink.com 1.10,2013-08-03 05:02:00,
2013-08-03 00:17:00,61.5,55.0,30.08,WNW,301,0.0,4.0,79,0.00,,,0.00,weatherlink.com 1.10,2013-08-03 05:17:00,
2013-08-03 00:32:00,61.1,55.0,30.08,WNW,302,2.0,3.0,80,0.00,,,0.00,weatherlink.com 1.10,2013-08-03 05:32:00,
2013-08-03 00:47:00,60.7,55.0,30.08,WNW,302,0.0,4.0,81,0.00,,,0.00,weatherlink.com 1.10,2013-08-03 05:47:00,
2013-08-03 01:02:00,60.4,55.0,30.08,WNW,302,0.0,1.0,82,0.00,,,0.00,weatherlink.com 1.10,2013-08-03 06:02:00,
2013-08-03 01:17:00,59.9,54.0,30.08,WNW,302,0.0,2.0,82,0.00,,,0.00,weatherlink.com 1.10,2013-08-03 06:17:00,
2013-08-03 01:32:00,59.6,54.0,30.09,WNW,302,0.0,2.0,83,0.00,,,0.00,weatherlink.com 1.10,2013-08-03 06:32:00,
2013-08-03 01:47:00,59.3,54.0,30.09,WNW,302,0.0,2.0,83,0.00,,,0.00,weatherlink.com 1.10,2013-08-03 06:47:00,
2013-08-03 02:02:00,59.0,54.0,30.09,WNW,302,0.0,2.0,84,0.00,,,0.00,weatherlink.com 1.10,2013-08-03 07:02:00,
2013-08-03 02:18:00,58.8,54.0,30.09,WNW,302,0.0,1.0,84,0.00,,,0.00,weatherlink.com 1.10,2013-08-03 07:18:00,
2013-08-03 02:32:00,58.5,54.0,30.09,WNW,302,0.0,1.0,84,0.00,,,0.00,weatherlink.com 1.10,2013-08-03 07:32:00,
2013-08-03 02:48:00,58.1,54.0,30.10,WNW,302,0.0,1.0,85,0.00,,,0.00,weatherlink.com 1.10,2013-08-03 07:48:00,
2013-08-03 03:03:00,58.0,54.0,30.10,WNW,302,0.0,1.0,85,0.00,,,0.00,weatherlink.com 1.10,2013-08-03 08:03:00,
2013-08-03 03:18:00,57.6,53.0,30.10,WNW,302,0.0,1.0,85,0.00,,,0.00,weatherlink.com 1.10,2013-08-03 08:18:00,
2013-08-03 03:33:00,57.5,53.0,30.10,WNW,302,0.0,1.0,85,0.00,,,0.00,weatherlink.com 1.10,2013-08-03 08:33:00,
2013-08-03 03:48:00,57.3,53.0,30.10,WNW,302,0.0,1.0,85,0.00,,,0.00,weatherlink.com 1.10,2013-08-03 08:48:00,
2013-08-03 04:03:00,57.2,53.0,30.10,WNW,302,0.0,0.0,85,0.00,,,0.00,weatherlink.com 1.10,2013-08-03 09:03:00,
2013-08-03 04:18:00,57.1,52.0,30.10,WNW,302,0.0,0.0,84,0.00,,,0.00,weatherlink.com 1.10,2013-08-03 09:18:00,
2013-08-03 04:33:00,57.0,52.0,30.10,WNW,302,0.0,0.0,84,0.00,,,0.00,weatherlink.com 1.10,2013-08-03 09:33:00,
2013-08-03 04:48:00,56.6,52.0,30.10,WNW,302,0.0,0.0,83,0.00,,,0.00,weatherlink.com 1.10,2013-08-03 09:48:00,
2013-08-03 05:03:00,56.2,51.0,30.10,WNW,302,0.0,0.0,83,0.00,,,0.00,weatherlink.com 1.10,2013-08-03 10:03:00,
2013-08-03 05:18:00,56.0,51.0,30.11,WNW,302,0.0,0.0,84,0.00,,,0.00,weatherlink.com 1.10,2013-08-03 10:18:00,
2013-08-03 05:33:00,55.8,51.0,30.11,WNW,302,0.0,0.0,84,0.00,,,0.00,weatherlink.com 1.10,2013-08-03 10:33:00,
2013-08-03 05:48:00,55.5,51.0,30.13,WNW,302,0.0,1.0,85,0.00,,,0.00,weatherlink.com 1.10,2013-08-03 10:48:00,
2013-08-03 06:03:00,55.5,51.0,30.13,WNW,302,0.0,1.0,85,0.00,,,0.00,weatherlink.com 1.10,2013-08-03 11:03:00,
2013-08-03 06:18:00,55.4,51.0,30.13,WNW,302,0.0,1.0,85,0.00,,,0.00,weatherlink.com 1.10,2013-08-03 11:18:00,
2013-08-03 06:33:00,55.6,51.0,30.14,WNW,302,0.0,1.0,85,0.00,,,0.00,weatherlink.com 1.10,2013-08-03 11:33:00,
2013-08-03 06:48:00,55.6,51.0,30.14,WNW,302,0.0,0.0,85,0.00,,,0.00,weatherlink.com 1.10,2013-08-03 11:48:00,
2013-08-03 07:03:00,55.6,51.0,30.14,WNW,302,0.0,0.0,85,0.00,,,0.00,weatherlink.com 1.10,2013-08-03 12:03:00,
2013-08-03 07:18:00,56.0,52.0,30.14,WNW,302,0.0,0.0,86,0.00,,,0.00,weatherlink.com 1.10,2013-08-03 12:18:00,
2013-08-03 07:34:00,57.5,53.0,30.14,WNW,302,0.0,0.0,84,0.00,,,0.00,weatherlink.com 1.10,2013-08-03 12:34:00,
2013-08-03 07:48:00,60.5,54.0,30.15,WNW,302,1.0,1.0,78,0.00,,,0.00,weatherlink.com 1.10,2013-08-03 12:48:00,
2013-08-03 08:03:00,62.7,54.0,30.15,WNW,302,0.0,2.0,74,0.00,,,0.00,weatherlink.com 1.10,2013-08-03 13:03:00,
2013-08-03 08:18:00,65.4,55.0,30.16,WNW,302,0.0,2.0,69,0.00,,,0.00,weatherlink.com 1.10,2013-08-03 13:18:00,
2013-08-03 08:33:00,66.1,56.0,30.17,WNW,302,0.0,3.0,69,0.00,,,0.00,weatherlink.com 1.10,2013-08-03 13:33:00,
2013-08-03 08:48:00,66.9,56.0,30.17,NW,304,0.0,4.0,67,0.00,,,0.00,weatherlink.com 1.10,2013-08-03 13:48:00,
2013-08-03 09:03:00,67.7,54.0,30.18,NW,307,0.0,5.0,62,0.00,,,0.00,weatherlink.com 1.10,2013-08-03 14:03:00,
2013-08-03 09:18:00,69.6,54.0,30.18,NW,308,1.0,2.0,58,0.00,,,0.00,weatherlink.com 1.10,2013-08-03 14:18:00,
2013-08-03 09:33:00,70.3,56.0,30.18,NW,308,1.0,2.0,60,0.00,,,0.00,weatherlink.com 1.10,2013-08-03 14:33:00,
2013-08-03 09:49:00,71.7,55.0,30.18,NW,308,3.0,3.0,55,0.00,,,0.00,weatherlink.com 1.10,2013-08-03 14:49:00,
2013-08-03 10:03:00,71.5,54.0,30.18,NW,312,0.0,6.0,54,0.00,,,0.00,weatherlink.com 1.10,2013-08-03 15:03:00,
2013-08-03 10:19:00,73.3,54.0,30.19,NW,312,3.0,4.0,51,0.00,,,0.00,weatherlink.com 1.10,2013-08-03 15:19:00,
2013-08-03 10:34:00,74.4,54.0,30.19,NW,313,0.0,3.0,50,0.00,,,0.00,weatherlink.com 1.10,2013-08-03 15:34:00,
2013-08-03 10:49:00,75.3,54.0,30.19,NW,314,3.0,5.0,47,0.00,,,0.00,weatherlink.com 1.10,2013-08-03 15:49:00,
2013-08-03 11:04:00,74.2,52.0,30.19,NNW,336,1.0,4.0,46,0.00,,,0.00,weatherlink.com 1.10,2013-08-03 16:04:00,
2013-08-03 11:19:00,74.5,52.0,30.20,NNW,333,0.0,3.0,45,0.00,,,0.00,weatherlink.com 1.10,2013-08-03 16:19:00,
2013-08-03 11:34:00,75.4,51.0,30.19,NNW,331,0.0,8.0,42,0.00,,,0.00,weatherlink.com 1.10,2013-08-03 16:34:00,
2013-08-03 11:49:00,75.4,51.0,30.19,North,360,1.0,8.0,43,0.00,,,0.00,weatherlink.com 1.10,2013-08-03 16:49:00,
2013-08-03 12:04:00,74.2,51.0,30.20,NE,44,0.0,8.0,45,0.00,,,0.00,weatherlink.com 1.10,2013-08-03 17:04:00,
2013-08-03 12:19:00,75.3,51.0,30.19,NE,51,0.0,6.0,43,0.00,,,0.00,weatherlink.com 1.10,2013-08-03 17:19:00,
2013-08-03 12:34:00,75.7,51.0,30.19,NE,40,1.0,5.0,42,0.00,,,0.00,weatherlink.com 1.10,2013-08-03 17:34:00,
2013-08-03 12:49:00,74.9,51.0,30.20,NNW,348,3.0,9.0,44,0.00,,,0.00,weatherlink.com 1.10,2013-08-03 17:49:00,
2013-08-03 13:04:00,75.5,51.0,30.20,NNW,348,0.0,8.0,42,0.00,,,0.00,weatherlink.com 1.10,2013-08-03 18:04:00,
2013-08-03 13:19:00,75.3,52.0,30.21,NNW,336,3.0,6.0,44,0.00,,,0.00,weatherlink.com 1.10,2013-08-03 18:19:00,
2013-08-03 13:34:00,74.9,51.0,30.20,NNW,336,3.0,8.0,44,0.00,,,0.00,weatherlink.com 1.10,2013-08-03 18:34:00,
2013-08-03 13:49:00,75.6,52.0,30.19,NNW,336,0.0,5.0,44,0.00,,,0.00,weatherlink.com 1.10,2013-08-03 18:49:00,
2013-08-03 14:04:00,76.0,52.0,30.19,NW,323,0.0,6.0,43,0.00,,,0.00,weatherlink.com 1.10,2013-08-03 19:04:00,
2013-08-03 14:19:00,75.4,51.0,30.19,NNW,334,0.0,5.0,43,0.00,,,0.00,weatherlink.com 1.10,2013-08-03 19:19:00,
2013-08-03 14:34:00,75.1,53.0,30.19,NNW,334,2.0,5.0,46,0.00,,,0.00,weatherlink.com 1.10,2013-08-03 19:34:00,
2013-08-03 14:49:00,75.0,52.0,30.19,NNW,333,0.0,6.0,44,0.00,,,0.00,weatherlink.com 1.10,2013-08-03 19:49:00,
2013-08-03 15:04:00,74.8,53.0,30.19,NNW,337,3.0,5.0,46,0.00,,,0.00,weatherlink.com 1.10,2013-08-03 20:04:00,
2013-08-03 15:19:00,76.3,53.0,30.19,NNW,329,1.0,8.0,44,0.00,,,0.00,weatherlink.com 1.10,2013-08-03 20:19:00,
2013-08-03 15:34:00,75.9,51.0,30.19,NW,306,2.0,11.0,42,0.00,,,0.00,weatherlink.com 1.10,2013-08-03 20:34:00,
2013-08-03 15:49:00,77.1,51.0,30.19,NW,314,0.0,4.0,40,0.00,,,0.00,weatherlink.com 1.10,2013-08-03 20:49:00,
2013-08-03 16:04:00,76.3,52.0,30.18,NW,317,1.0,5.0,43,0.00,,,0.00,weatherlink.com 1.10,2013-08-03 21:04:00,
2013-08-03 16:19:00,75.8,50.0,30.19,North,360,2.0,5.0,41,0.00,,,0.00,weatherlink.com 1.10,2013-08-03 21:19:00,
2013-08-03 16:34:00,78.5,50.0,30.18,North,355,1.0,8.0,37,0.00,,,0.00,weatherlink.com 1.10,2013-08-03 21:34:00,
2013-08-03 16:49:00,77.4,51.0,30.18,NE,35,0.0,9.0,40,0.00,,,0.00,weatherlink.com 1.10,2013-08-03 21:49:00,
2013-08-03 17:04:00,76.9,51.0,30.18,NNE,13,1.0,4.0,40,0.00,,,0.00,weatherlink.com 1.10,2013-08-03 22:04:00,
2013-08-03 17:19:00,77.8,51.0,30.17,North,355,3.0,6.0,39,0.00,,,0.00,weatherlink.com 1.10,2013-08-03 22:19:00,
2013-08-03 17:34:00,77.7,51.0,30.17,North,355,2.0,4.0,40,0.00,,,0.00,weatherlink.com 1.10,2013-08-03 22:34:00,
2013-08-03 17:49:00,77.1,50.0,30.18,NNW,340,1.0,6.0,39,0.00,,,0.00,weatherlink.com 1.10,2013-08-03 22:49:00,
2013-08-03 18:04:00,76.7,51.0,30.17,North,360,2.0,6.0,41,0.00,,,0.00,weatherlink.com 1.10,2013-08-03 23:04:00,
2013-08-03 18:19:00,76.7,51.0,30.17,North,360,1.0,4.0,41,0.00,,,0.00,weatherlink.com 1.10,2013-08-03 23:19:00,
2013-08-03 18:34:00,76.3,51.0,30.17,NE,44,1.0,6.0,41,0.00,,,0.00,weatherlink.com 1.10,2013-08-03 23:34:00,
2013-08-03 18:49:00,75.1,51.0,30.17,NE,43,1.0,5.0,43,0.00,,,0.00,weatherlink.com 1.10,2013-08-03 23:49:00,
2013-08-03 19:04:00,74.4,52.0,30.17,ENE,59,1.0,7.0,45,0.00,,,0.00,weatherlink.com 1.10,2013-08-04 00:04:00,
2013-08-03 19:19:00,73.5,51.0,30.17,ENE,57,0.0,4.0,45,0.00,,,0.00,weatherlink.com 1.10,2013-08-04 00:19:00,
2013-08-03 19:34:00,73.0,50.0,30.17,ENE,57,0.0,1.0,45,0.00,,,0.00,weatherlink.com 1.10,2013-08-04 00:34:00,
2013-08-03 19:49:00,72.4,50.0,30.17,ENE,57,0.0,1.0,46,0.00,,,0.00,weatherlink.com 1.10,2013-08-04 00:49:00,
2013-08-03 20:04:00,71.8,51.0,30.18,ENE,57,0.0,3.0,48,0.00,,,0.00,weatherlink.com 1.10,2013-08-04 01:04:00,
2013-08-03 20:19:00,71.1,52.0,30.18,ENE,57,0.0,3.0,51,0.00,,,0.00,weatherlink.com 1.10,2013-08-04 01:19:00,
2013-08-03 20:34:00,70.3,52.0,30.18,ENE,57,0.0,2.0,53,0.00,,,0.00,weatherlink.com 1.10,2013-08-04 01:34:00,
2013-08-03 20:49:00,69.4,52.0,30.18,ENE,57,0.0,1.0,55,0.00,,,0.00,weatherlink.com 1.10,2013-08-04 01:49:00,
2013-08-03 21:04:00,68.5,52.0,30.19,ENE,57,0.0,1.0,57,0.00,,,0.00,weatherlink.com 1.10,2013-08-04 02:04:00,
2013-08-03 21:19:00,67.9,52.0,30.20,ENE,57,0.0,1.0,58,0.00,,,0.00,weatherlink.com 1.10,2013-08-04 02:19:00,
2013-08-03 21:34:00,67.6,52.0,30.20,ENE,57,0.0,3.0,58,0.00,,,0.00,weatherlink.com 1.10,2013-08-04 02:34:00,
2013-08-03 21:49:00,67.2,52.0,30.20,ENE,57,0.0,1.0,59,0.00,,,0.00,weatherlink.com 1.10,2013-08-04 02:49:00,
2013-08-03 22:04:00,66.7,53.0,30.21,ENE,57,0.0,0.0,61,0.00,,,0.00,weatherlink.com 1.10,2013-08-04 03:04:00,
2013-08-03 22:19:00,66.0,53.0,30.21,ENE,57,0.0,0.0,63,0.00,,,0.00,weatherlink.com 1.10,2013-08-04 03:19:00,
2013-08-03 22:34:00,65.0,53.0,30.21,ENE,57,0.0,0.0,65,0.00,,,0.00,weatherlink.com 1.10,2013-08-04 03:34:00,
2013-08-03 22:49:00,64.2,53.0,30.21,ENE,57,0.0,0.0,67,0.00,,,0.00,weatherlink.com 1.10,2013-08-04 03:49:00,
2013-08-03 23:04:00,63.6,53.0,30.22,ENE,57,0.0,0.0,69,0.00,,,0.00,weatherlink.com 1.10,2013-08-04 04:04:00,
2013-08-03 23:19:00,62.8,53.0,30.22,ENE,57,0.0,0.0,70,0.00,,,0.00,weatherlink.com 1.10,2013-08-04 04:19:00,
2013-08-03 23:34:00,62.0,53.0,30.23,ENE,57,0.0,0.0,72,0.00,,,0.00,weatherlink.com 1.10,2013-08-04 04:34:00,
2013-08-03 23:49:00,61.4,53.0,30.23,ENE,57,0.0,0.0,74,0.00,,,0.00,weatherlink.com 1.10,2013-08-04 04:49:00,